QPF
0.03 0.06 0.07 0.03 0.01 0.00 0.00 0.00 0.00 0.00 0.00 0.00 0.00 0.00 0.00 0.00 0.00 0.00 0.00 0.00 0.00 0.00 0.00 0.00 0.00 0.00 0.00 0.00 0.00 0.00 0.01 0.04 0.08 0.09 0.08 0.07 0.06 0.03 0.02 0.02 0.02 0.03 0.02 0.01
0.01 0.02 0.03 0.01 0.01 0.00 0.00 0.00 0.00 0.00 0.00 0.00 0.00 0.00 0.00 0.00 0.00 0.00 0.00 0.00 0.00 0.00 0.00 0.00 0.00 0.00 0.00 0.00 0.00 0.00 0.00 0.02 0.04 0.03 0.04 0.07 0.10 0.09 0.07 0.06 0.05 0.06 0.04 0.02
0.00 0.00 0.00 0.00 0.00 0.00 0.00 0.00 0.00 0.00 0.00 0.00 0.00 0.00 0.00 0.00 0.00 0.00 0.00 0.00 0.00 0.00 0.00 0.00 0.00 0.00 0.00 0.00 0.00 0.00 0.00 0.01 0.03 0.05 0.09 0.11 0.11 0.10 0.09 0.06 0.05 0.05 0.04 0.03
0.00 0.00 0.00 0.00 0.00 0.00 0.00 0.00 0.00 0.00 0.00 0.00 0.00 0.00 0.00 0.00 0.00 0.00 0.00 0.00 0.00 0.00 0.00 0.00 0.00 0.00 0.00 0.00 0.00 0.00 0.00 0.00 0.03 0.06 0.05 0.03 0.02 0.02 0.03 0.04 0.07 0.08 0.06 0.04
0.00 0.00 0.00 0.00 0.00 0.00 0.00 0.00 0.00 0.00 0.00 0.00 0.00 0.00 0.00 0.00 0.00 0.00 0.00 0.00 0.00 0.00 0.00 0.00 0.00 0.00 0.00 0.00 0.00 0.00 0.00 0.00 0.01 0.03 0.02 0.01 0.02 0.03 0.04 0.05 0.06 0.07 0.05 0.04
0.00 0.00 0.00 0.00 0.00 0.00 0.00 0.00 0.00 0.00 0.00 0.00 0.00 0.00 0.00 0.00 0.00 0.00 0.00 0.00 0.00 0.00 0.00 0.00 0.00 0.00 0.00 0.00 0.00 0.00 0.00 0.00 0.01 0.02 0.02 0.01 0.01 0.01 0.02 0.03 0.04 0.04 0.03 0.03
0.00 0.00 0.00 0.00 0.00 0.00 0.00 0.00 0.00 0.00 0.00 0.00 0.00 0.00 0.00 0.00 0.00 0.00 0.00 0.00 0.00 0.00 0.00 0.00 0.00 0.00 0.00 0.00 0.00 0.00 0.00 0.00 0.01 0.02 0.02 0.01 0.01 0.01 0.02 0.03 0.04 0.04 0.04 0.04
0.00 0.00 0.00 0.00 0.00 0.00 0.00 0.00 0.00 0.00 0.00 0.00 0.00 0.00 0.00 0.00 0.00 0.00 0.00 0.00 0.00 0.00 0.00 0.00 0.00 0.00 0.00 0.00 0.00 0.00 0.00 0.00 0.01 0.02 0.02 0.02 0.01 0.01 0.02 0.03 0.03 0.05 0.07 0.08
0.00 0.00 0.00 0.00 0.00 0.00 0.00 0.00 0.00 0.00 0.00 0.00 0.00 0.00 0.00 0.00 0.00 0.00 0.00 0.00 0.00 0.00 0.00 0.00 0.00 0.00 0.00 0.00 0.00 0.00 0.00 0.01 0.02 0.03 0.03 0.02 0.01 0.02 0.03 0.03 0.03 0.05 0.07 0.08
0.00 0.00 0.00 0.00 0.00 0.00 0.00 0.00 0.00 0.00 0.00 0.00 0.00 0.00 0.00 0.00 0.00 0.00 0.00 0.00 0.00 0.00 0.00 0.00 0.00 0.00 0.00 0.00 0.00 0.00 0.01 0.02 0.03 0.05 0.04 0.02 0.02 0.03 0.04 0.03 0.02 0.03 0.05 0.06
0.00 0.00 0.00 0.00 0.00 0.00 0.00 0.00 0.00 0.00 0.00 0.00 0.00 0.00 0.00 0.00 0.00 0.00 0.00 0.00 0.00 0.00 0.00 0.00 0.00 0.00 0.00 0.00 0.00 0.01 0.02 0.04 0.06 0.06 0.04 0.03 0.03 0.03 0.04 0.03 0.02 0.03 0.06 0.07
0.00 0.00 0.00 0.00 0.00 0.00 0.00 0.00 0.00 0.00 0.00 0.00 0.00 0.00 0.00 0.00 0.00 0.00 0.00 0.00 0.00 0.00 0.00 0.00 0.00 0.00 0.00 0.00 0.01 0.03 0.05 0.07 0.07 0.06 0.05 0.04 0.04 0.04 0.03 0.03 0.02 0.03 0.05 0.06
0.00 0.00 0.00 0.00 0.00 0.00 0.00 0.00 0.00 0.01 0.03 0.02 0.01 0.00 0.00 0.00 0.00 0.00 0.00 0.00 0.00 0.00 0.00 0.00 0.00 0.00 0.00 0.02 0.04 0.07 0.08 0.07 0.06 0.06 0.05 0.05 0.04 0.03 0.03 0.03 0.03 0.03 0.04 0.05
0.00 0.00 0.00 0.00 0.00 0.00 0.00 0.00 0.00 0.02 0.07 0.02 0.00 0.00 0.00 0.00 0.00 0.00 0.01 0.01 0.01 0.01 0.00 0.00 0.00 0.00 0.01 0.04 0.06 0.09 0.09 0.09 0.11 0.10 0.08 0.06 0.04 0.03 0.03 0.04 0.05 0.05 0.04 0.03
0.00 0.00 0.00 0.00 0.00 0.00 0.00 0.00 0.00 0.01 0.02 0.03 0.01 0.00 0.00 0.00 0.01 0.02 0.02 0.02 0.02 0.02 0.01 0.01 0.01 0.01 0.02 0.05 0.09 0.11 0.13 0.14 0.14 0.12 0.09 0.05 0.04 0.03 0.04 0.05 0.05 0.04 0.03 0.01
0.00 0.00 0.00 0.00 0.00 0.00 0.00 0.00 0.00 0.00 0.00 0.01 0.01 0.01 0.00 0.00 0.01 0.02 0.03 0.02 0.02 0.02 0.01 0.01 0.01 0.01 0.02 0.05 0.12 0.16 0.18 0.18 0.15 0.11 0.07 0.04 0.03 0.04 0.05 0.05 0.04 0.02 0.02 0.02
0.00 0.00 0.00 0.00 0.00 0.00 0.00 0.00 0.00 0.00 0.00 0.01 0.02 0.01 0.00 0.00 0.01 0.02 0.02 0.02 0.01 0.01 0.01 0.00 0.00 0.01 0.02 0.07 0.17 0.25 0.30 0.27 0.19 0.13 0.07 0.04 0.03 0.05 0.06 0.07 0.07 0.06 0.05 0.04
0.00 0.00 0.00 0.00 0.00 0.00 0.00 0.00 0.00 0.00 0.00 0.00 0.00 0.00 0.00 0.00 0.01 0.01 0.01 0.01 0.00 0.00 0.00 0.00 0.00 0.01 0.03 0.07 0.14 0.18 0.22 0.23 0.17 0.12 0.08 0.07 0.09 0.14 0.18 0.19 0.18 0.17 0.13 0.09
0.00 0.01 0.01 0.01 0.00 0.00 0.00 0.00 0.00 0.00 0.00 0.00 0.00 0.00 0.00 0.00 0.00 0.01 0.01 0.01 0.00 0.00 0.00 0.00 0.01 0.01 0.03 0.05 0.07 0.10 0.14 0.16 0.17 0.21 0.24 0.25 0.27 0.30 0.32 0.34 0.33 0.28 0.22 0.15
0.01 0.01 0.02 0.01 0.01 0.00 0.00 0.00 0.00 0.00 0.00 0.00 0.00 0.00 0.00 0.00 0.00 0.01 0.02 0.02 0.01 0.01 0.01 0.01 0.01 0.01 0.03 0.06 0.10 0.17 0.26 0.32 0.34 0.39 0.43 0.42 0.40 0.39 0.36 0.32 0.28 0.21 0.14 0.09
0.02 0.02 0.03 0.02 0.01 0.00 0.00 0.00 0.00 0.00 0.00 0.00 0.00 0.00 0.00 0.00 0.01 0.01 0.03 0.03 0.04 0.05 0.05 0.06 0.08 0.09 0.13 0.18 0.26 0.38 0.48 0.48 0.45 0.44 0.40 0.34 0.28 0.21 0.15 0.10 0.06 0.03 0.02 0.01
0.00 0.00 0.01 0.01 0.01 0.00 0.00 0.00 0.00 0.00 0.00 0.00 0.00 0.00 0.00 0.00 0.00 0.01 0.01 0.03 0.07 0.09 0.10 0.12 0.18 0.23 0.26 0.29 0.34 0.41 0.42 0.37 0.31 0.24 0.16 0.10 0.07 0.04 0.02 0.01 0.00 0.00 0.00 0.00
0.00 0.00 0.00 0.00 0.00 0.00 0.00 0.00 0.00 0.00 0.00 0.00 0.00 0.00 0.00 0.00 0.00 0.00 0.01 0.01 0.03 0.05 0.06 0.06 0.08 0.10 0.12 0.13 0.14 0.16 0.14 0.11 0.08 0.05 0.03 0.01 0.00 0.00 0.00 0.00 0.00 0.00 0.00 0.00
0.00 0.00 0.00 0.00 0.00 0.00 0.00 0.00 0.00 0.00 0.00 0.00 0.00 0.00 0.00 0.00 0.00 0.00 0.00 0.01 0.01 0.02 0.02 0.02 0.02 0.01 0.01 0.01 0.01 0.01 0.01 0.01 0.00 0.00 0.00 0.00 0.00 0.00 0.00 0.00 0.00 0.00 0.00 0.00
0.00 0.01 0.01 0.00 0.00 0.00 0.00 0.00 0.00 0.00 0.00 0.00 0.00 0.00 0.00 0.00 0.00 0.00 0.00 0.00 0.00 0.00 0.00 0.00 0.00 0.00 0.00 0.00 0.00 0.00 0.00 0.00 0.00 0.00 0.00 0.00 0.00 0.00 0.00 0.00 0.00 0.00 0.00 0.00
0.00 0.00 0.00 0.00 0.00 0.00 0.00 0.00 0.00 0.00 0.00 0.00 0.00 0.00 0.00 0.00 0.00 0.00 0.00 0.00 0.00 0.00 0.00 0.00 0.00 0.00 0.00 0.00 0.00 0.00 0.00 0.00 0.00 0.00 0.00 0.00 0.00 0.00 0.00 0.00 0.00 0.00 0.00 0.00
MSLP
1013.21 1013.68 1014.08 1014.40 1014.67 1014.91 1015.11 1015.26 1015.34 1015.31 1015.16 1014.86 1014.41 1013.83 1013.16 1012.44 1011.73 1011.08 1010.51 1010.05 1009.68 1009.38 1009.14 1008.93 1008.71 1008.51 1008.32 1008.17 1008.09 1008.11 1008.25 1008.52 1008.90 1009.38 1009.91 1010.48 1011.05 1011.60 1012.13 1012.64 1013.15 1013.68 1014.25 1014.86
1013.34 1013.70 1014.00 1014.28 1014.56 1014.86 1015.17 1015.47 1015.68 1015.76 1015.66 1015.34 1014.81 1014.08 1013.21 1012.28 1011.38 1010.56 1009.89 1009.38 1009.01 1008.76 1008.59 1008.44 1008.28 1008.09 1007.90 1007.72 1007.59 1007.55 1007.65 1007.89 1008.27 1008.76 1009.33 1009.93 1010.54 1011.13 1011.68 1012.22 1012.74 1013.29 1013.88 1014.52
1013.43 1013.67 1013.88 1014.13 1014.44 1014.83 1015.28 1015.73 1016.10 1016.30 1016.26 1015.92 1015.30 1014.41 1013.34 1012.20 1011.09 1010.10 1009.31 1008.74 1008.37 1008.16 1008.05 1007.96 1007.86 1007.70 1007.51 1007.31 1007.14 1007.06 1007.11 1007.32 1007.68 1008.18 1008.77 1009.41 1010.06 1010.68 1011.27 1011.82 1012.37 1012.93 1013.54 1014.20
1013.49 1013.61 1013.76 1013.98 1014.34 1014.84 1015.44 1016.07 1016.60 1016.92 1016.94 1016.59 1015.87 1014.84 1013.58 1012.22 1010.91 1009.76 1008.84 1008.21 1007.83 1007.65 1007.59 1007.57 1007.51 1007.40 1007.21 1006.99 1006.78 1006.65 1006.65 1006.82 1007.15 1007.64 1008.25 1008.91 1009.59 1010.25 1010.87 1011.46 1012.03 1012.61 1013.23 1013.91
1013.54 1013.57 1013.66 1013.89 1014.31 1014.93 1015.69 1016.48 1017.16 1017.59 1017.67 1017.31 1016.51 1015.34 1013.90 1012.36 1010.86 1009.56 1008.54 1007.84 1007.44 1007.29 1007.27 1007.30 1007.30 1007.21 1007.02 1006.78 1006.53 1006.34 1006.28 1006.40 1006.69 1007.16 1007.75 1008.43 1009.13 1009.83 1010.49 1011.12 1011.72 1012.33 1012.96 1013.65
1013.60 1013.56 1013.63 1013.88 1014.38 1015.11 1016.00 1016.94 1017.75 1018.27 1018.38 1018.01 1017.14 1015.86 1014.28 1012.58 1010.94 1009.52 1008.41 1007.65 1007.24 1007.10 1007.11 1007.18 1007.21 1007.14 1006.95 1006.68 1006.38 1006.13 1006.00 1006.05 1006.28 1006.70 1007.27 1007.94 1008.66 1009.39 1010.10 1010.77 1011.42 1012.06 1012.73 1013.42
1013.68 1013.61 1013.67 1013.96 1014.53 1015.36 1016.37 1017.41 1018.31 1018.89 1019.02 1018.62 1017.69 1016.31 1014.63 1012.82 1011.08 1009.57 1008.40 1007.61 1007.19 1007.05 1007.08 1007.18 1007.22 1007.15 1006.96 1006.65 1006.30 1005.98 1005.78 1005.74 1005.89 1006.25 1006.78 1007.43 1008.16 1008.92 1009.67 1010.40 1011.10 1011.80 1012.50 1013.23
1013.77 1013.70 1013.79 1014.14 1014.78 1015.68 1016.76 1017.86 1018.78 1019.37 1019.47 1019.03 1018.05 1016.61 1014.86 1012.99 1011.19 1009.64 1008.44 1007.64 1007.21 1007.07 1007.11 1007.21 1007.26 1007.19 1006.97 1006.64 1006.24 1005.85 1005.56 1005.44 1005.51 1005.79 1006.26 1006.88 1007.61 1008.39 1009.18 1009.97 1010.75 1011.52 1012.28 1013.05
1013.84 1013.81 1013.97 1014.38 1015.08 1016.03 1017.12 1018.21 1019.10 1019.64 1019.68 1019.18 1018.14 1016.66 1014.88 1013.00 1011.20 1009.65 1008.45 1007.65 1007.22 1007.07 1007.11 1007.20 1007.24 1007.16 1006.93 1006.56 1006.12 1005.69 1005.33 1005.13 1005.12 1005.32 1005.73 1006.31 1007.02 1007.81 1008.65 1009.51 1010.36 1011.21 1012.05 1012.88
1013.88 1013.94 1014.18 1014.66 1015.40 1016.35 1017.41 1018.42 1019.21 1019.64 1019.58 1019.00 1017.91 1016.40 1014.63 1012.78 1011.03 1009.52 1008.36 1007.58 1007.15 1007.00 1007.02 1007.09 1007.11 1007.01 1006.77 1006.39 1005.93 1005.47 1005.07 1004.81 1004.73 1004.87 1005.21 1005.74 1006.43 1007.23 1008.11 1009.03 1009.96 1010.90 1011.83 1012.73
1013.88 1014.05 1014.39 1014.94 1015.70 1016.61 1017.57 1018.44 1019.07 1019.33 1019.14 1018.46 1017.32 1015.82 1014.10 1012.32 1010.66 1009.24 1008.14 1007.39 1006.97 1006.81 1006.80 1006.85 1006.84 1006.73 1006.49 1006.12 1005.68 1005.22 1004.81 1004.52 1004.41 1004.49 1004.78 1005.27 1005.93 1006.73 1007.63 1008.60 1009.61 1010.63 1011.65 1012.64
1013.84 1014.15 1014.59 1015.19 1015.93 1016.75 1017.57 1018.24 1018.66 1018.73 1018.37 1017.58 1016.41 1014.95 1013.31 1011.66 1010.13 1008.83 1007.82 1007.13 1006.73 1006.56 1006.52 1006.52 1006.50 1006.38 1006.15 1005.82 1005.42 1005.00 1004.62 1004.35 1004.23 1004.29 1004.54 1004.99 1005.62 1006.40 1007.32 1008.32 1009.39 1010.49 1011.58 1012.65
1013.80 1014.24 1014.77 1015.39 1016.08 1016.77 1017.38 1017.82 1017.99 1017.84 1017.32 1016.44 1015.26 1013.86 1012.36 1010.88 1009.52 1008.38 1007.50 1006.88 1006.51 1006.32 1006.25 1006.22 1006.17 1006.06 1005.86 1005.58 1005.25 1004.91 1004.60 1004.38 1004.29 1004.35 1004.58 1005.00 1005.60 1006.36 1007.27 1008.30 1009.40 1010.54 1011.69 1012.81
1013.79 1014.34 1014.92 1015.52 1016.10 1016.62 1017.00 1017.18 1017.09 1016.71 1016.04 1015.10 1013.95 1012.67 1011.35 1010.08 1008.95 1008.00 1007.27 1006.76 1006.43 1006.24 1006.14 1006.08 1006.00 1005.89 1005.73 1005.52 1005.28 1005.04 1004.84 1004.70 1004.66 1004.75 1004.99 1005.39 1005.96 1006.69 1007.58 1008.59 1009.70 1010.86 1012.04 1013.19
1013.84 1014.44 1015.02 1015.55 1015.99 1016.29 1016.42 1016.33 1015.99 1015.42 1014.63 1013.67 1012.60 1011.48 1010.39 1009.38 1008.51 1007.80 1007.25 1006.86 1006.59 1006.41 1006.29 1006.20 1006.10 1006.00 1005.87 1005.74 1005.60 1005.47 1005.38 1005.34 1005.38 1005.52 1005.77 1006.17 1006.71 1007.41 1008.26 1009.25 1010.33 1011.48 1012.65 1013.79
1013.95 1014.54 1015.06 1015.46 1015.72 1015.80 1015.66 1015.31 1014.76 1014.03 1013.17 1012.25 1011.30 1010.40 1009.57 1008.87 1008.29 1007.84 1007.50 1007.25 1007.06 1006.91 1006.78 1006.66 1006.55 1006.44 1006.35 1006.28 1006.23 1006.22 1006.24 1006.31 1006.43 1006.62 1006.91 1007.30 1007.82 1008.49 1009.29 1010.23 1011.27 1012.37 1013.50 1014.60
1014.08 1014.60 1015.00 1015.24 1015.29 1015.12 1014.75 1014.17 1013.44 1012.62 1011.75 1010.91 1010.15 1009.49 1008.97 1008.59 1008.33 1008.15 1008.03 1007.93 1007.84 1007.72 1007.59 1007.45 1007.32 1007.21 1007.15 1007.12 1007.15 1007.23 1007.35 1007.52 1007.72 1007.97 1008.29 1008.69 1009.20 1009.83 1010.58 1011.46 1012.44 1013.48 1014.53 1015.56
1014.18 1014.56 1014.80 1014.84 1014.68 1014.29 1013.71 1012.97 1012.13 1011.27 1010.46 1009.75 1009.20 1008.82 1008.61 1008.56 1008.60 1008.69 1008.79 1008.85 1008.84 1008.78 1008.66 1008.51 1008.36 1008.24 1008.19 1008.20 1008.28 1008.42 1008.62 1008.86 1009.13 1009.44 1009.79 1010.20 1010.70 1011.30 1012.01 1012.83 1013.73 1014.68 1015.65 1016.57
1014.14 1014.36 1014.41 1014.26 1013.90 1013.34 1012.61 1011.77 1010.89 1010.06 1009.35 1008.82 1008.50 1008.39 1008.48 1008.71 1009.03 1009.36 1009.65 1009.85 1009.94 1009.93 1009.82 1009.67 1009.52 1009.40 1009.34 1009.37 1009.48 1009.67 1009.92 1010.21 1010.53 1010.88 1011.26 1011.69 1012.18 1012.76 1013.43 1014.18 1015.01 1015.87 1016.73 1017.55
1013.92 1013.96 1013.83 1013.50 1012.99 1012.31 1011.50 1010.63 1009.79 1009.05 1008.48 1008.14 1008.04 1008.18 1008.52 1009.00 1009.53 1010.05 1010.49 1010.81 1010.98 1011.01 1010.94 1010.80 1010.64 1010.52 1010.47 1010.51 1010.64 1010.85 1011.13 1011.46 1011.82 1012.19 1012.60 1013.04 1013.53 1014.10 1014.73 1015.43 1016.18 1016.95 1017.71 1018.41
1013.46 1013.33 1013.04 1012.59 1011.99 1011.26 1010.45 1009.63 1008.88 1008.28 1007.88 1007.73 1007.83 1008.17 1008.69 1009.34 1010.02 1010.66 1011.20 1011.59 1011.82 1011.90 1011.86 1011.75 1011.61 1011.51 1011.48 1011.53 1011.68 1011.91 1012.21 1012.56 1012.93 1013.33 1013.76 1014.21 1014.71 1015.25 1015.86 1016.51 1017.19 1017.87 1018.53 1019.11
1012.78 1012.51 1012.12 1011.60 1010.97 1010.26 1009.52 1008.82 1008.22 1007.78 1007.56 1007.58 1007.84 1008.31 1008.95 1009.68 1010.43 1011.13 1011.71 1012.14 1012.40 1012.52 1012.52 1012.45 1012.37 1012.31 1012.31 1012.40 1012.57 1012.82 1013.13 1013.49 1013.89 1014.30 1014.74 1015.20 1015.70 1016.23 1016.81 1017.41 1018.03 1018.63 1019.18 1019.65
1011.96 1011.59 1011.14 1010.60 1010.01 1009.38 1008.78 1008.23 1007.81 1007.56 1007.50 1007.66 1008.03 1008.58 1009.26 1010.00 1010.75 1011.43 1012.00 1012.43 1012.72 1012.88 1012.93 1012.93 1012.91 1012.92 1012.99 1013.12 1013.33 1013.61 1013.95 1014.32 1014.73 1015.15 1015.59 1016.06 1016.55 1017.07 1017.62 1018.17 1018.72 1019.24 1019.70 1020.07
1011.10 1010.68 1010.21 1009.70 1009.19 1008.69 1008.24 1007.89 1007.66 1007.58 1007.67 1007.95 1008.38 1008.95 1009.61 1010.30 1010.99 1011.61 1012.13 1012.54 1012.84 1013.03 1013.15 1013.23 1013.31 1013.41 1013.56 1013.77 1014.04 1014.35 1014.72 1015.11 1015.52 1015.95 1016.39 1016.85 1017.33 1017.83 1018.34 1018.84 1019.32 1019.76 1020.12 1020.40
1010.34 1009.89 1009.43 1008.99 1008.57 1008.21 1007.94 1007.76 1007.71 1007.80 1008.02 1008.37 1008.84 1009.39 1009.99 1010.61 1011.20 1011.74 1012.20 1012.58 1012.88 1013.12 1013.31 1013.49 1013.67 1013.88 1014.13 1014.42 1014.75 1015.11 1015.50 1015.90 1016.32 1016.74 1017.18 1017.62 1018.08 1018.54 1019.01 1019.45 1019.87 1020.22 1020.50 1020.69
1009.79 1009.34 1008.90 1008.51 1008.19 1007.97 1007.84 1007.82 1007.93 1008.14 1008.46 1008.87 1009.35 1009.87 1010.40 1010.94 1011.44 1011.90 1012.30 1012.66 1012.97 1013.25 1013.52 1013.80 1014.09 1014.40 1014.75 1015.12 1015.51 1015.92 1016.33 1016.74 1017.15 1017.56 1017.97 1018.39 1018.81 1019.23 1019.64 1020.03 1020.37 1020.64 1020.84 1020.95
Thickness
5557 5558 5563 5568 5572 5573 5575 5578 5578 5586 5601 5606 5610 5616 5628 5639 5640 5644 5651 5656 5660 5666 5674 5678 5682 5686 5689 5693 5694 5695 5695 5695 5691 5685 5681 5678 5676 5676 5675 5673 5669 5664 5658 5653
5549 5552 5559 5565 5567 5568 5568 5568 5571 5580 5591 5597 5599 5609 5622 5632 5639 5646 5651 5656 5660 5663 5667 5670 5674 5677 5681 5685 5687 5688 5689 5691 5690 5688 5685 5680 5676 5672 5671 5668 5664 5660 5654 5649
5545 5552 5558 5560 5560 5561 5561 5562 5567 5572 5578 5584 5587 5602 5614 5628 5638 5645 5650 5654 5657 5659 5662 5664 5667 5670 5673 5676 5679 5682 5682 5684 5685 5685 5680 5671 5662 5659 5658 5658 5658 5654 5649 5644
5544 5553 5556 5555 5557 5558 5556 5561 5566 5566 5562 5558 5568 5573 5602 5613 5626 5639 5644 5645 5648 5652 5656 5658 5660 5662 5665 5669 5671 5673 5675 5677 5679 5678 5674 5670 5665 5659 5659 5658 5652 5647 5642 5638
5539 5548 5551 5551 5555 5558 5555 5558 5558 5557 5551 5545 5552 5552 5591 5601 5613 5629 5636 5640 5643 5646 5648 5650 5652 5654 5657 5659 5660 5663 5665 5668 5670 5670 5670 5667 5664 5659 5652 5648 5643 5639 5634 5631
5538 5545 5549 5550 5554 5556 5553 5548 5545 5534 5529 5529 5544 5540 5567 5586 5609 5621 5631 5637 5639 5640 5641 5642 5643 5644 5645 5645 5647 5649 5651 5655 5658 5659 5660 5661 5658 5649 5641 5637 5633 5630 5625 5621
5530 5535 5542 5547 5545 5548 5545 5530 5518 5517 5512 5528 5549 5548 5569 5594 5604 5608 5615 5622 5626 5628 5628 5628 5630 5630 5630 5631 5632 5633 5636 5639 5643 5646 5648 5650 5649 5644 5640 5635 5629 5624 5619 5614
5510 5517 5534 5540 5541 5538 5536 5529 5519 5525 5519 5529 5549 5552 5579 5597 5600 5603 5606 5608 5609 5610 5609 5611 5612 5612 5612 5615 5616 5617 5619 5623 5627 5630 5634 5636 5636 5634 5632 5629 5625 5621 5616 5610
5510 5522 5535 5539 5543 5540 5533 5522 5525 5513 5508 5506 5528 5547 5573 5593 5595 5595 5594 5593 5592 5591 5591 5591 5591 5592 5592 5594 5596 5598 5600 5605 5610 5614 5617 5619 5620 5621 5621 5618 5615 5610 5606 5600
5525 5521 5533 5537 5539 5539 5537 5527 5510 5498 5492 5507 5524 5536 5555 5577 5582 5581 5579 5577 5575 5574 5573 5572 5571 5571 5572 5573 5575 5577 5580 5586 5592 5597 5601 5603 5605 5607 5608 5606 5604 5600 5596 5591
5536 5523 5526 5531 5528 5527 5530 5528 5516 5500 5495 5496 5506 5548 5568 5571 5571 5568 5567 5564 5560 5557 5554 5551 5550 5550 5551 5552 5554 5557 5562 5567 5573 5579 5584 5587 5589 5591 5593 5595 5594 5591 5587 5582
5537 5526 5517 5523 5532 5532 5529 5523 5512 5498 5495 5495 5495 5541 5569 5564 5561 5560 5558 5556 5552 5547 5543 5539 5536 5534 5534 5535 5538 5541 5547 5552 5558 5563 5567 5571 5574 5577 5581 5583 5583 5581 5578 5573
5537 5524 5505 5513 5521 5526 5525 5521 5518 5511 5503 5493 5502 5540 5565 5560 5559 5558 5555 5550 5544 5539 5533 5528 5524 5521 5520 5521 5524 5527 5533 5539 5545 5548 5551 5554 5559 5564 5569 5572 5572 5570 5567 5563
5536 5520 5507 5519 5523 5523 5521 5523 5519 5512 5507 5508 5518 5542 5559 5558 5557 5555 5549 5542 5533 5527 5522 5517 5512 5509 5508 5508 5509 5512 5518 5524 5530 5534 5538 5542 5548 5554 5558 5561 5561 5559 5556 5553
5534 5517 5511 5513 5522 5524 5521 5524 5523 5518 5519 5521 5535 5543 5556 5557 5555 5551 5543 5534 5528 5522 5517 5512 5506 5501 5497 5496 5496 5498 5502 5508 5515 5520 5524 5530 5536 5541 5546 5547 5548 5546 5543 5539
5526 5513 5514 5514 5521 5521 5520 5528 5528 5529 5532 5534 5538 5546 5558 5559 5554 5545 5533 5525 5520 5516 5513 5508 5504 5496 5490 5487 5485 5486 5489 5494 5500 5507 5512 5519 5526 5530 5533 5534 5534 5531 5527 5523
5515 5510 5509 5505 5514 5520 5522 5541 5540 5538 5543 5543 5544 5554 5561 5558 5550 5532 5521 5515 5512 5510 5507 5502 5496 5489 5483 5480 5480 5479 5480 5483 5489 5495 5502 5510 5516 5519 5520 5521 5519 5515 5510 5507
5511 5505 5502 5506 5513 5515 5547 5560 5556 5552 5555 5555 5556 5558 5558 5553 5539 5522 5513 5507 5506 5504 5500 5495 5489 5483 5479 5477 5475 5474 5475 5477 5482 5488 5495 5501 5506 5508 5507 5506 5503 5500 5497 5493
5519 5512 5509 5512 5513 5522 5548 5560 5559 5556 5556 5561 5557 5557 5555 5548 5537 5524 5511 5505 5501 5497 5494 5490 5486 5482 5479 5477 5475 5475 5474 5476 5479 5484 5488 5492 5496 5497 5496 5493 5490 5488 5485 5480
5520 5517 5512 5513 5517 5527 5552 5563 5562 5557 5553 5563 5559 5555 5551 5545 5539 5527 5509 5504 5499 5496 5492 5488 5485 5482 5479 5477 5476 5476 5475 5477 5478 5481 5483 5486 5488 5488 5486 5482 5479 5476 5473 5469
5514 5514 5514 5514 5515 5528 5552 5559 5557 5551 5557 5565 5560 5555 5548 5539 5530 5516 5507 5502 5497 5494 5491 5488 5485 5482 5479 5478 5478 5477 5475 5475 5476 5477 5478 5479 5479 5478 5476 5473 5469 5467 5465 5460
5515 5517 5519 5519 5519 5530 5557 5556 5554 5557 5562 5561 5558 5551 5540 5528 5519 5513 5507 5501 5496 5493 5490 5487 5485 5481 5479 5478 5478 5475 5473 5473 5474 5474 5473 5472 5471 5471 5468 5465 5461 5458 5453 5447
5518 5522 5523 5526 5537 5551 5557 5557 5560 5557 5554 5555 5552 5544 5534 5525 5518 5512 5506 5500 5496 5492 5489 5487 5484 5481 5478 5477 5477 5474 5471 5471 5472 5471 5469 5467 5465 5462 5459 5455 5450 5444 5438 5432
5524 5528 5528 5531 5539 5547 5552 5555 5555 5552 5549 5548 5546 5539 5532 5525 5518 5511 5506 5500 5495 5491 5488 5485 5482 5479 5477 5475 5473 5472 5471 5470 5469 5466 5462 5458 5455 5450 5446 5442 5437 5431 5424 5419
5520 5528 5530 5534 5540 5546 5552 5553 5552 5548 5544 5543 5539 5535 5529 5522 5516 5510 5505 5499 5495 5491 5487 5484 5481 5478 5475 5473 5471 5469 5467 5466 5462 5457 5453 5448 5443 5438 5433 5429 5425 5421 5415 5411
5511 5519 5523 5529 5539 5542 5547 5550 5545 5541 5539 5536 5532 5527 5523 5519 5513 5508 5502 5497 5493 5489 5485 5481 5479 5476 5473 5470 5466 5463 5461 5458 5454 5448 5442 5437 5432 5427 5423 5419 5416 5415 5411 5408